CDT,Max TemperatureF,Mean TemperatureF,Min TemperatureF,Max Dew PointF,MeanDew PointF,Min DewpointF,Max Humidity, Mean Humidity, Min Humidity, Max Sea Level PressureIn, Mean Sea Level PressureIn, Min Sea Level PressureIn, Max VisibilityMiles, Mean VisibilityMiles, Min VisibilityMiles, Max Wind SpeedMPH, Mean Wind SpeedMPH, Max Gust SpeedMPH,PrecipitationIn, CloudCover, Events, WindDirDegrees
2013-7-1,79,64,48,55,49,44,96,63,30,30.25,30.21,30.17,10,9,3,13,4,25,0.00,0,,31
2013-7-2,81,65,49,56,49,44,93,61,28,30.21,30.15,30.07,10,10,7,8,1,12,0.00,0,,88
2013-7-3,84,67,50,54,49,42,100,62,24,30.09,29.99,29.88,10,9,5,14,5,23,0.00,0,,168
2013-7-4,89,72,54,53,51,46,77,51,24,29.91,29.84,29.78,10,10,5,22,10,31,0.00,0,,168
2013-7-5,89,75,61,61,56,51,73,57,40,29.82,29.76,29.72,10,10,9,23,11,29,T,1,Rain,151
2013-7-6,91,80,69,67,63,58,73,57,41,29.82,29.73,29.68,10,9,2,26,11,37,0.24,2,Rain-Thunderstorm,154
2013-7-7,92,78,63,70,67,62,100,71,41,29.98,29.85,29.76,10,8,1,12,7,17,0.33,2,Rain-Thunderstorm,53
2013-7-8,92,78,63,73,70,66,100,78,55,30.03,29.93,29.85,10,7,2,16,6,26,0.02,2,Rain-Thunderstorm,83
2013-7-9,94,80,65,71,67,63,100,71,41,30.04,29.92,29.85,10,10,7,18,7,25,0.00,1,Thunderstorm,23
2013-7-10,82,72,61,65,62,60,100,76,51,30.11,30.06,29.99,10,10,10,20,6,25,0.00,1,,87
2013-7-11,87,76,64,69,66,63,100,76,51,30.03,29.95,29.86,10,9,5,23,11,47,0.00,1,,160
2013-7-12,95,81,67,70,67,64,93,66,39,29.89,29.83,29.77,10,10,10,24,12,32,0.00,0,,156
2013-7-13,97,82,67,72,67,63,90,63,35,29.87,29.83,29.78,10,10,10,20,6,26,0.00,0,,134
2013-7-14,77,73,68,72,69,68,97,87,76,30.17,30.02,29.82,10,8,3,23,11,41,0.03,5,Rain-Thunderstorm,123
2013-7-15,84,71,57,67,59,51,100,68,36,30.20,30.15,30.08,10,6,1,21,9,28,0.00,1,,143
2013-7-16,83,73,62,63,62,59,100,74,47,30.27,30.20,30.13,10,9,4,22,11,30,0.00,4,,181
2013-7-17,87,74,61,64,62,60,100,71,42,30.26,30.20,30.11,10,10,10,22,11,32,0.00,1,,180
2013-7-18,92,79,66,65,62,60,87,62,36,30.12,29.99,29.86,10,10,10,26,13,44,0.00,0,,193
2013-7-19,93,79,65,65,59,52,87,57,26,29.97,29.92,29.88,10,10,10,22,8,29,0.00,1,,66
2013-7-20,84,71,58,65,61,57,100,72,44,30.08,29.96,29.84,10,8,1,52,11,74,1.19,3,Rain-Thunderstorm,76
2013-7-21,89,74,58,69,61,55,100,69,38,30.07,29.84,29.75,10,9,3,37,6,46,0.05,2,Rain-Thunderstorm,138
2013-7-22,88,77,65,69,65,59,93,68,42,29.85,29.81,29.73,10,9,4,15,6,20,T,0,Rain,38
2013-7-23,80,71,61,66,63,59,100,81,62,30.10,29.97,29.83,10,8,1,13,7,18,1.11,4,Rain-Thunderstorm,49
2013-7-24,82,70,57,71,63,57,100,76,51,30.13,30.05,29.99,10,9,5,12,2,15,0.00,1,,119
2013-7-25,80,71,61,67,64,59,100,81,62,30.06,30.00,29.98,10,10,7,15,5,22,T,2,Rain-Thunderstorm,275
2013-7-26,74,65,55,61,55,50,100,73,46,30.21,30.14,30.06,10,9,5,18,7,24,T,0,,2
2013-7-27,71,63,54,58,54,51,100,77,53,30.24,30.13,30.03,10,9,1,16,4,21,0.39,5,Rain-Thunderstorm,107
2013-7-28,70,60,50,57,54,50,100,78,55,30.07,30.03,30.01,10,9,5,17,7,25,0.00,6,,150
2013-7-29,68,63,58,64,61,57,100,94,87,30.07,30.01,29.96,10,4,1,14,6,20,0.15,8,Rain,140
2013-7-30,79,71,62,68,64,62,100,81,62,30.24,30.10,30.02,10,7,1,21,6,26,0.04,6,Rain-Thunderstorm,138
2013-7-31,80,71,61,68,64,58,100,81,62,30.22,30.14,30.06,10,9,2,23,4,30,0.20,5,Rain-Thunderstorm,53